Weather Roundup
Issued by NWS

Home | Current Version | Previous Version | Text Only | Print | Product List | Glossary On
Versions: 1 2 3 4 5 6 7 8 9 10 11 12 13 14 15 16 17 18 19 20 21 22 23 24 25 26 27 28 29 30 31 32 33 34 35 36 37 38 39 40 41 42 43 44 45 46 47 48 49 50
000
NZUS93 KARX 280410
HRRWXR

CURRENT HOURLY OBSERVATIONS ACROSS
MUCH OF THE UPPER MISSISSIPPI VALLEY
NATIONAL WEATHER SERVICE LA CROSSE WI
1100 PM CDT MON APR 27 2015


...SOUTHEAST MINNESOTA...


CITY           SKY/WX    TMP DP  RH WIND       PRES   REMARKS
ROCHESTER      CLEAR     53  29  39 NW8       30.16S
ROCHESTER/MAYO FAIR      56  30  37 W5        30.15R
WINONA         CLEAR     52  37  58 CALM      30.13S
AUSTIN         CLEAR     48  34  57 CALM      30.15S
ALBERT LEA     CLEAR     52  36  54 CALM      30.16S
DODGE CENTER   PTCLDY    55  25  30 NW3       30.15S
PRESTON        CLEAR     50  31  49 NW6       30.15R
OWATONNA       CLEAR     43  28  56 CALM      30.16S
FARIBAULT      PTCLDY    45  30  57 CALM      30.15F
$$

...ELSEWHERE IN MINNESOTA...


CITY           SKY/WX    TMP DP  RH WIND       PRES   REMARKS
MINNEAPOLIS    MOCLDY    57  28  33 CALM      30.14S
INTNL FALLS    PTCLDY    47  32  56 CALM      30.15R
DULUTH         PTCLDY    47  27  45 E7        30.14F
RED WING       CLEAR     46  30  53 NW3       30.13S
REDWOOD FALLS  PTCLDY    56  23  27 CALM      30.16S
MANKATO        CLEAR     54  25  32 CALM      30.16S
WORTHINGTON    PTCLDY    46  21  36 NW3       30.19R
FAIRMONT       PTCLDY    50  27  40 CALM      30.16S
$$

...SOUTHWEST WISCONSIN...


CITY           SKY/WX    TMP DP  RH WIND       PRES   REMARKS
LA CROSSE      CLEAR     49  40  71 CALM      30.11R
PRAIRIE DU CHI CLEAR     46  36  67 CALM      30.11S
BOSCOBEL       CLEAR     46  36  68 CALM      30.11S
LONE ROCK      CLEAR     45  37  73 W5        30.09S
PLATTEVILLE    CLEAR     53  34  48 NW5       30.10S
FORT MC COY    CLEAR     40  33  74 CALM      30.12S
CAMP DOUGLAS   CLEAR     45  32  61 CALM      30.10R
VIROQUA        FAIR      53  30  41 CALM      30.11S
WIS DELLS      CLEAR     45  32  59 CALM      30.09S
$$

...ELSEWHERE IN WISCONSIN...


CITY           SKY/WX    TMP DP  RH WIND       PRES   REMARKS
MILWAUKEE      CLEAR     43  31  62 N5        30.14S
MADISON        CLEAR     48  37  65 SE10      30.11R
GREEN BAY      CLEAR     43  34  70 NE3       30.16R
EAU CLAIRE     CLEAR     51  29  42 CALM      30.14R
BLACK RVR FLS  FAIR      45  29  52 N3        30.12R
MEDFORD        CLEAR     44  28  54 NE6       30.14R
WAUSAU         CLEAR     51  27  39 N6        30.12R
WIS RAPIDS     CLEAR     52  25  35 NE7       30.13R
MARSHFIELD     CLEAR     52  29  41 NE8       30.12S
RICE LAKE      CLEAR     45  34  66 CALM      30.16S
$$

...NORTHEAST IOWA...


CITY           SKY/WX    TMP DP  RH WIND       PRES   REMARKS
DECORAH        CLEAR     54  32  43 W5        30.12S
MASON CITY     CLEAR     44  32  62 N7        30.17R
CHARLES CITY   CLEAR     52  34  50 N6        30.15S
OELWEIN        CLEAR     54  36  50 CALM      30.14S
$$

...ELSEWHERE IN IOWA...


CITY           SKY/WX    TMP DP  RH WIND       PRES   REMARKS
DES MOINES     CLEAR     56  35  45 CALM      30.15R
IOWA CITY      CLEAR     47  37  68 NW5       30.13S
FORT DODGE     CLEAR     48  36  61 CALM      30.17S
$$

...NORTHERN ILLINOIS...


CITY           SKY/WX    TMP DP  RH WIND       PRES   REMARKS
CHICAGO-OHARE  PTCLDY    42  33  70 NE6       30.12F
CHICAGO-MIDWAY CLEAR     45  33  63 E6        30.12F
MOLINE         CLEAR     45  37  73 CALM      30.10S
ROCKFORD       CLEAR     46  35  65 SE3       30.14S
PEORIA         CLEAR     52  37  56 E8        30.12S
$$

NOTE: "FAIR" INDICATES FEW OR NO CLOUDS BELOW 12,000 FEET WITH NO
SIGNIFICANT WEATHER AND/OR OBSTRUCTIONS TO VISIBILITY. WIND
SPEEDS ARE IN MILES-PER-HOUR.



USA.gov is the U.S. government's official web portal to all federal, state and local government web resources and services.